Weather History for KPBI - January, 2015

Change the Weather History Date:

Thursday, January 15, 2015

  Actual Average Record
Temperature  
Mean Temperature 71 °F 65 °F  
Max Temperature 78 °F 74 °F 84 °F (1957)
Min Temperature 63 °F 57 °F 32 °F (1948)
Degree Days  
Heating Degree Days 0 3  
Month to date heating degree days 1 45  
Since 1 July heating degree days 43 116  
Cooling Degree Days 6 3  
Month to date cooling degree days 133 52  
Year to date cooling degree days 133 52  
Growing Degree Days 20 (Base 50)    
Moisture  
Dew Point 63 °F    
Average Humidity 79    
Maximum Humidity 93    
Minimum Humidity 64    
Precipitation  
Precipitation 0.26 in 0.10 in 6.78 in (1991)
Month to date precipitation 0.97 1.62  
Year to date precipitation 0.97 1.62  
Snow  
Snow 0.00 in - - ()
Month to date snowfall 0.0  
Since 1 July snowfall 0.0  
Snow Depth 0.00 in    
Sea Level Pressure  
Sea Level Pressure 30.05 in    
Wind  
Wind Speed 10 mph (North)    
Max Wind Speed 17 mph    
Max Gust Speed 23 mph    
Visibility 9 miles    
Events Rain    
T = Trace of Precipitation, MM = Missing Value Source: NWS Daily Summary

Daily Weather History Graph

Daily Weather History Graph

Search for Another Location

Airport or City:

Trip Planner

Search our weather history database for the weather conditions in past years. The results will help you decide how hot, cold, wet, or windy it might be!

Date:

Astronomy

Jan. 15, 2015 Rise Set
Actual Time 7:10 AM EST 5:49 PM EST
Civil Twilight 6:45 AM EST 6:14 PM EST
Nautical Twilight 6:17 AM EST 6:42 PM EST
Astronomical Twilight 5:49 AM EST 7:10 PM EST
Moon 2:11 AM EST (1/15) 1:32 PM EST (1/15)
Length of Visible Light 11h 28m
Length of Day
10h 38m
Waning Crescent, 28% of the Moon is Illuminated
Jan 15
Waning Crescent
Jan 20
New
Jan 26
First Quarter
Feb 3
Full
Feb 11
Last Quarter

Hourly Weather History & Observations

Time (EST) Temp. Dew Point Humidity Pressure Visibility Wind Dir Wind Speed Gust Speed Precip Events Conditions
12:44 AM 64.9 °F 62.1 °F 90% 30.05 in 10.0 mi NW 13.8 mph - N/A   Overcast
12:53 AM 64.9 °F 62.1 °F 90% 30.05 in 10.0 mi NW 12.7 mph - N/A   Overcast
1:41 AM 64.0 °F 61.0 °F 90% 30.06 in 10.0 mi NW 11.5 mph - N/A   Overcast
1:53 AM 64.0 °F 61.0 °F 90% 30.06 in 10.0 mi NW 11.5 mph - N/A   Overcast
2:53 AM 64.0 °F 61.0 °F 90% 30.06 in 10.0 mi NNW 10.4 mph - N/A   Overcast
3:00 AM 64.0 °F 61.0 °F 90% 30.06 in 10.0 mi NNW 11.5 mph - N/A   Overcast
3:53 AM 64.0 °F 61.0 °F 90% 30.05 in 10.0 mi NNW 10.4 mph - N/A   Overcast
4:53 AM 64.0 °F 60.1 °F 87% 30.06 in 10.0 mi North 11.5 mph - N/A   Overcast
5:53 AM 64.0 °F 60.1 °F 87% 30.07 in 10.0 mi NNW 10.4 mph - N/A   Overcast
6:53 AM 64.0 °F 60.1 °F 87% 30.08 in 10.0 mi NNW 9.2 mph - N/A   Overcast
7:53 AM 64.0 °F 61.0 °F 90% 30.08 in 10.0 mi NNW 8.1 mph - N/A   Overcast
8:53 AM 66.0 °F 62.1 °F 87% 30.09 in 10.0 mi NNW 11.5 mph - N/A   Overcast
9:53 AM 69.1 °F 63.0 °F 81% 30.11 in 10.0 mi NNW 11.5 mph - N/A   Mostly Cloudy
10:00 AM 69.1 °F 63.0 °F 81% 30.10 in 10.0 mi North 9.2 mph - N/A   Mostly Cloudy
10:53 AM 72.0 °F 64.0 °F 76% 30.10 in 10.0 mi NNW 10.4 mph - N/A   Scattered Clouds
11:53 AM 77.0 °F 64.9 °F 66% 30.06 in 10.0 mi North 8.1 mph - N/A   Mostly Cloudy
12:11 PM 77.0 °F 66.0 °F 69% 30.05 in 10.0 mi NE 9.2 mph - N/A   Mostly Cloudy
12:53 PM 77.0 °F 66.9 °F 71% 30.03 in 10.0 mi NE 9.2 mph - N/A   Mostly Cloudy
1:00 PM 77.0 °F 66.9 °F 71% 30.03 in 10.0 mi ENE 9.2 mph - N/A   Mostly Cloudy
1:53 PM 78.1 °F 66.9 °F 68% 30.02 in 10.0 mi ENE 6.9 mph - N/A   Mostly Cloudy
2:53 PM 77.0 °F 66.0 °F 69% 30.02 in 10.0 mi East 4.6 mph - N/A   Mostly Cloudy
3:53 PM 75.9 °F 66.9 °F 74% 30.01 in 10.0 mi ENE 6.9 mph - N/A   Mostly Cloudy
4:53 PM 73.9 °F 66.0 °F 76% 30.01 in 10.0 mi ENE 9.2 mph - N/A   Mostly Cloudy
5:29 PM 70.0 °F 64.9 °F 84% 30.02 in 2.5 mi East 4.6 mph - 0.05 in Rain Heavy Rain
5:38 PM 69.1 °F 66.0 °F 90% 30.03 in 1.0 mi Variable 4.6 mph - 0.16 in Rain Rain
5:46 PM 69.1 °F 66.0 °F 90% 30.03 in 3.0 mi North 4.6 mph - 0.19 in Rain Heavy Rain
5:53 PM 69.1 °F 66.0 °F 90% 30.04 in 3.0 mi North 6.9 mph - 0.25 in Rain Heavy Rain
6:53 PM 69.1 °F 64.0 °F 84% 30.04 in 10.0 mi NNE 9.2 mph - 0.01 in   Mostly Cloudy
7:53 PM 66.9 °F 61.0 °F 81% 30.05 in 10.0 mi North 15.0 mph - N/A   Mostly Cloudy
8:53 PM 66.0 °F 60.1 °F 81% 30.06 in 10.0 mi North 16.1 mph - N/A   Overcast
9:19 PM 64.9 °F 60.1 °F 84% 30.06 in 10.0 mi North 11.5 mph - N/A   Mostly Cloudy
9:53 PM 64.9 °F 60.1 °F 84% 30.06 in 10.0 mi North 11.5 mph - N/A   Mostly Cloudy
10:53 PM 64.9 °F 60.1 °F 84% 30.06 in 10.0 mi North 11.5 mph - N/A   Mostly Cloudy
11:53 PM 64.9 °F 60.1 °F 84% 30.04 in 10.0 mi NNW 9.2 mph - N/A   Mostly Cloudy